Location: Unspecified
(0.0000°N, 0.0000°E)
Time: 23:48:44
(UTC+00:00)

S-56A Canister/Altair - Pass Details

Date: 19 December 2018
Orbit: 633 x 2500 km, 38.9° (Epoch: 18 January)

Event Time Altitude Azimuth Distance (km) Brightness Sun altitude
Rises 07:19:57 0° 332° (NNW) 5,800 11.5 19.0°
Reaches altitude 10° 07:24:38 10° 344° (NNW) 4,977 11.3 20.0°
Maximum altitude 07:36:11 27° 36° (NE) 3,916 11.4 22.6°
Drops below altitude 10° 07:47:32 10° 87° (E) 4,944 12.8 25.2°
Sets 07:52:03 0° 98° (E) 5,761 13.1 26.2°
